TimeCDT,TemperatureF,Dew PointF,Humidity,Sea Level PressureIn,VisibilityMPH,Wind Direction,Wind SpeedMPH,Gust SpeedMPH,PrecipitationIn,Events,Conditions,WindDirDegrees,DateUTC
12:15 AM,34.7,28.8,79,30.03,10.0,Calm,Calm,-,N/A,,Clear,0,2013-04-05 05:15:00
12:35 AM,35.6,28.8,76,30.04,10.0,Calm,Calm,-,N/A,,Clear,0,2013-04-05 05:35:00
12:55 AM,35.8,28.2,74,30.04,10.0,Calm,Calm,-,N/A,,Clear,0,2013-04-05 05:55:00
1:15 AM,35.8,28.6,75,30.04,10.0,Calm,Calm,-,N/A,,Clear,0,2013-04-05 06:15:00
1:35 AM,33.1,28.0,82,30.04,10.0,Calm,Calm,-,N/A,,Clear,0,2013-04-05 06:35:00
1:55 AM,34.0,28.9,82,30.04,10.0,West,5.8,-,N/A,,Clear,280,2013-04-05 06:55:00
2:15 AM,37.6,28.0,68,30.04,10.0,West,3.5,-,N/A,,Clear,270,2013-04-05 07:15:00
2:35 AM,36.0,27.3,71,30.04,10.0,Calm,Calm,-,N/A,,Clear,0,2013-04-05 07:35:00
2:55 AM,33.3,27.3,79,30.04,10.0,WSW,3.5,-,N/A,,Clear,250,2013-04-05 07:55:00
3:15 AM,38.7,27.3,64,30.05,10.0,Calm,Calm,-,N/A,,Clear,0,2013-04-05 08:15:00
3:35 AM,38.3,27.1,64,30.05,10.0,Calm,Calm,-,N/A,,Clear,0,2013-04-05 08:35:00
3:55 AM,33.6,27.5,78,30.05,10.0,Calm,Calm,-,N/A,,Clear,0,2013-04-05 08:55:00
4:15 AM,33.6,27.5,78,30.06,10.0,Calm,Calm,-,N/A,,Clear,0,2013-04-05 09:15:00
4:35 AM,32.5,27.5,82,30.06,10.0,Calm,Calm,-,N/A,,Scattered Clouds,0,2013-04-05 09:35:00
4:55 AM,34.3,28.4,79,30.06,10.0,Calm,Calm,-,N/A,,Scattered Clouds,0,2013-04-05 09:55:00
5:15 AM,34.2,27.5,77,30.07,10.0,Calm,Calm,-,N/A,,Clear,0,2013-04-05 10:15:00
5:35 AM,34.2,27.5,77,30.07,10.0,Calm,Calm,-,N/A,,Clear,0,2013-04-05 10:35:00
5:55 AM,33.1,28.0,82,30.08,10.0,Calm,Calm,-,N/A,,Clear,0,2013-04-05 10:55:00
6:15 AM,36.0,27.3,71,30.08,10.0,West,4.6,-,N/A,,Clear,270,2013-04-05 11:15:00
6:35 AM,36.9,26.6,66,30.09,10.0,West,5.8,-,N/A,,Clear,270,2013-04-05 11:35:00
6:55 AM,36.7,27.3,69,30.10,10.0,West,4.6,-,N/A,,Clear,270,2013-04-05 11:55:00
7:15 AM,38.3,28.4,68,30.11,10.0,West,3.5,-,N/A,,Clear,270,2013-04-05 12:15:00
7:35 AM,40.5,31.6,71,30.11,10.0,West,3.5,-,N/A,,Clear,260,2013-04-05 12:35:00
7:55 AM,44.8,32.4,62,30.11,10.0,WNW,3.5,-,N/A,,Clear,290,2013-04-05 12:55:00
8:15 AM,46.2,32.4,58,30.12,10.0,NW,5.8,-,N/A,,Clear,320,2013-04-05 13:15:00
8:35 AM,47.5,32.2,55,30.12,10.0,NNW,8.1,-,N/A,,Clear,340,2013-04-05 13:35:00
8:55 AM,49.1,32.0,52,30.12,10.0,North,8.1,-,N/A,,Clear,360,2013-04-05 13:55:00
9:15 AM,50.4,32.0,49,30.13,10.0,North,6.9,-,N/A,,Clear,350,2013-04-05 14:15:00
9:35 AM,52.0,32.0,47,30.13,10.0,North,8.1,-,N/A,,Clear,350,2013-04-05 14:35:00
9:55 AM,53.6,31.8,44,30.13,10.0,NNW,4.6,-,N/A,,Clear,340,2013-04-05 14:55:00
10:15 AM,55.0,32.0,42,30.14,10.0,North,4.6,-,N/A,,Clear,350,2013-04-05 15:15:00
10:35 AM,55.6,32.4,41,30.14,10.0,NNW,6.9,-,N/A,,Clear,330,2013-04-05 15:35:00
10:55 AM,57.0,32.7,40,30.14,10.0,North,8.1,-,N/A,,Clear,350,2013-04-05 15:55:00
11:15 AM,57.7,31.8,37,30.14,10.0,North,5.8,-,N/A,,Clear,350,2013-04-05 16:15:00
11:35 AM,59.2,31.8,36,30.14,10.0,NW,9.2,-,N/A,,Clear,310,2013-04-05 16:35:00
11:55 AM,60.3,30.7,33,30.14,10.0,NNW,8.1,16.1,N/A,,Clear,340,2013-04-05 16:55:00
12:15 PM,60.4,32.2,35,30.14,10.0,North,10.4,16.1,N/A,,Clear,360,2013-04-05 17:15:00
12:35 PM,61.0,30.0,31,30.14,10.0,NW,11.5,16.1,N/A,,Clear,320,2013-04-05 17:35:00
12:55 PM,61.9,27.9,28,30.13,10.0,NW,9.2,17.3,N/A,,Clear,310,2013-04-05 17:55:00
1:15 PM,62.1,28.0,28,30.13,10.0,NW,4.6,-,N/A,,Clear,310,2013-04-05 18:15:00
1:35 PM,62.8,26.4,25,30.12,10.0,NNW,10.4,17.3,N/A,,Clear,340,2013-04-05 18:35:00
1:55 PM,63.1,24.6,23,30.12,10.0,NNW,15.0,-,N/A,,Clear,340,2013-04-05 18:55:00
2:15 PM,63.1,22.5,21,30.11,10.0,North,10.4,19.6,N/A,,Clear,360,2013-04-05 19:15:00
2:35 PM,63.7,23.7,22,30.10,10.0,NNW,11.5,-,N/A,,Clear,340,2013-04-05 19:35:00
2:55 PM,63.7,23.7,22,30.10,10.0,NW,8.1,-,N/A,,Clear,320,2013-04-05 19:55:00
3:15 PM,63.5,23.5,22,30.09,10.0,North,8.1,-,N/A,,Clear,360,2013-04-05 20:15:00
3:35 PM,63.5,24.6,23,30.09,10.0,North,10.4,-,N/A,,Clear,10,2013-04-05 20:35:00
3:55 PM,63.9,24.3,22,30.08,10.0,NNE,5.8,-,N/A,,Clear,20,2013-04-05 20:55:00
4:15 PM,63.7,24.3,22,30.08,10.0,NW,9.2,-,N/A,,Clear,310,2013-04-05 21:15:00
4:35 PM,63.0,22.6,21,30.09,10.0,NW,5.8,-,N/A,,Clear,320,2013-04-05 21:35:00
4:55 PM,63.5,24.4,23,30.09,10.0,NW,8.1,-,N/A,,Clear,310,2013-04-05 21:55:00
5:15 PM,63.7,24.1,22,30.09,10.0,NW,6.9,-,N/A,,Clear,320,2013-04-05 22:15:00
5:35 PM,63.5,23.5,22,30.10,10.0,WNW,8.1,-,N/A,,Clear,300,2013-04-05 22:35:00
5:55 PM,62.8,25.2,24,30.10,10.0,North,6.9,-,N/A,,Clear,360,2013-04-05 22:55:00
6:15 PM,61.7,27.5,27,30.10,10.0,North,5.8,-,N/A,,Clear,350,2013-04-05 23:15:00
6:35 PM,59.9,27.1,29,30.10,10.0,NNW,4.6,-,N/A,,Clear,340,2013-04-05 23:35:00
6:55 PM,58.1,27.5,31,30.11,10.0,NNW,4.6,-,N/A,,Clear,340,2013-04-05 23:55:00
7:15 PM,57.4,26.6,31,30.11,10.0,North,3.5,-,N/A,,Clear,350,2013-04-06 00:15:00
7:35 PM,52.9,30.2,42,30.11,10.0,NNW,3.5,-,N/A,,Clear,340,2013-04-06 00:35:00
7:55 PM,50.9,34.0,52,30.11,10.0,NNW,3.5,-,N/A,,Clear,330,2013-04-06 00:55:00
8:15 PM,46.6,34.2,62,30.12,10.0,Calm,Calm,-,N/A,,Clear,0,2013-04-06 01:15:00
8:35 PM,48.6,34.9,59,30.12,10.0,Calm,Calm,-,N/A,,Clear,0,2013-04-06 01:35:00
8:55 PM,47.8,35.6,63,30.13,10.0,NNE,3.5,-,N/A,,Clear,20,2013-04-06 01:55:00
9:15 PM,47.3,36.0,65,30.13,10.0,Calm,Calm,-,N/A,,Clear,0,2013-04-06 02:15:00
9:35 PM,45.1,32.4,61,30.14,10.0,Calm,Calm,-,N/A,,Clear,0,2013-04-06 02:35:00
9:55 PM,45.3,32.2,60,30.14,10.0,Calm,Calm,-,N/A,,Clear,0,2013-04-06 02:55:00
10:15 PM,43.2,34.0,70,30.14,10.0,Calm,Calm,-,N/A,,Clear,0,2013-04-06 03:15:00
10:35 PM,44.4,34.0,67,30.13,10.0,Calm,Calm,-,N/A,,Clear,0,2013-04-06 03:35:00
10:55 PM,43.0,33.8,70,30.13,10.0,Calm,Calm,-,N/A,,Clear,0,2013-04-06 03:55:00
11:15 PM,43.7,34.7,71,30.13,10.0,Calm,Calm,-,N/A,,Clear,0,2013-04-06 04:15:00
11:35 PM,43.7,33.8,68,30.12,10.0,Calm,Calm,-,N/A,,Clear,0,2013-04-06 04:35:00
11:55 PM,42.3,33.4,71,30.12,10.0,Calm,Calm,-,N/A,,Clear,0,2013-04-06 04:55:00